KA4TEV Fort Meyers FL US current weather conditions

sailwx.info

Wind from 080

Air temperature 11.1° C
Dewpoint 7.6° C

Last reported at 2019-Dec-06 06:59 UTC.
Time now 2019-Dec-06 07:58 UTC

Location: N 26°31' W 081°57'.
View on Google Maps.

See reports from other nearby stations

  
Tides and Currents Weather Stations Pressure Air Temp Water Temp Dewpoint Dewpoint Depression Visibility Wind Speed Wind Dir Waves Ship Positions
date/time (UTC)wind fromknots sea level pressurealtimeterstation pressurevisibilityair tempwater tempwave heightnotes
2019-Dec-06 06:59 080 11.1
2019-Dec-06 06:54 080 11.1
2019-Dec-06 06:49 080 11.1
2019-Dec-06 06:44 080 11.1
2019-Dec-06 06:39 080 11.1
2019-Dec-06 06:34 080 11.7
2019-Dec-06 06:29 080 11.7
2019-Dec-06 06:24 080 11.7
2019-Dec-06 06:19 080 11.7
2019-Dec-06 06:14 080 11.7
2019-Dec-06 06:09 080 11.7
2019-Dec-06 06:04 080 11.7
2019-Dec-06 05:59 079 11.7
2019-Dec-06 05:54 080 11.1
2019-Dec-06 05:49 079 11.1
2019-Dec-06 05:44 080 11.1
2019-Dec-06 05:39 080 11.1
2019-Dec-06 05:34 080 11.1
2019-Dec-06 05:29 098 11.7
2019-Dec-06 05:24 098 11.7
2019-Dec-06 05:19 098 11.7
2019-Dec-06 05:14 098 11.7
2019-Dec-06 05:09 098 11.7
2019-Dec-06 05:04 098 12.2
2019-Dec-06 04:59 098 12.2
2019-Dec-06 04:54 098 12.2
2019-Dec-06 04:49 098 12.8
2019-Dec-06 04:44 098 12.8
2019-Dec-06 04:39 098 13.3
2019-Dec-06 04:34 098 13.3
2019-Dec-06 04:29 098 13.9
2019-Dec-06 04:24 098 13.9
2019-Dec-06 04:19 098 13.9
2019-Dec-06 04:14 098 13.9
2019-Dec-06 04:09 098 13.9
2019-Dec-06 04:04 089 0 gusting 1 13.9
2019-Dec-06 03:59 088 13.9
2019-Dec-06 03:54 089 13.9
2019-Dec-06 03:49 090 0 gusting 1 13.3
2019-Dec-06 03:44 093 0 gusting 1 13.3
2019-Dec-06 03:39 076 13.3
2019-Dec-06 03:34 076 13.3
2019-Dec-06 03:29 076 13.9
2019-Dec-06 03:24 076 13.9
2019-Dec-06 03:19 076 13.9
2019-Dec-06 03:14 076 13.9
2019-Dec-06 03:09 076 14.4
2019-Dec-06 03:04 076 14.4
2019-Dec-06 02:59 076 14.4
2019-Dec-06 02:54 076 14.4
2019-Dec-06 02:49 076 14.4
2019-Dec-06 02:44 076 14.4
2019-Dec-06 02:39 076 15.0
2019-Dec-06 02:34 077 15.0
2019-Dec-06 02:29 078 15.0
2019-Dec-06 02:24 078 15.0
2019-Dec-06 02:19 078 15.0
2019-Dec-06 02:14 078 0 gusting 1 15.0
2019-Dec-06 02:09 077 15.0
2019-Dec-06 02:04 077 15.0
2019-Dec-06 01:59 076 15.6
2019-Dec-06 01:54 076 15.6
2019-Dec-06 01:49 076 15.6
2019-Dec-06 01:44 076 16.1
2019-Dec-06 01:39 078 0 gusting 3 16.1
2019-Dec-06 01:34 061 0 gusting 2 16.1
2019-Dec-06 01:29 061 16.7
2019-Dec-06 01:24 052 16.1
2019-Dec-06 01:19 053 0 gusting 1 16.1
2019-Dec-06 01:14 042 16.1
2019-Dec-06 01:09 041 0 gusting 2 16.1
2019-Dec-06 01:04 036 0 gusting 1 16.1
2019-Dec-06 00:59 053 16.1
2019-Dec-06 00:54 053 0 gusting 4 15.6
2019-Dec-06 00:49 045 15.0
2019-Dec-06 00:44 045 15.0
2019-Dec-06 00:39 046 15.0
2019-Dec-06 00:34 355 15.0
2019-Dec-06 00:29 355 15.0
2019-Dec-06 00:24 355 15.0
2019-Dec-06 00:19 355 15.0
2019-Dec-06 00:14 355 15.6
2019-Dec-06 00:09 355 15.6
2019-Dec-06 00:04 355 15.6
2019-Dec-05 23:59 355 16.1
2019-Dec-05 23:54 355 16.1
2019-Dec-05 23:49 355 16.1
2019-Dec-05 23:44 355 16.7
2019-Dec-05 23:39 355 17.2
2019-Dec-05 23:34 355 17.2
2019-Dec-05 23:29 355 17.2
2019-Dec-05 23:24 355 17.8
2019-Dec-05 23:19 355 17.8
2019-Dec-05 23:14 355 18.3
2019-Dec-05 23:09 355 0 gusting 1 18.3
2019-Dec-05 23:04 021 18.3
2019-Dec-05 22:59 021 18.9
2019-Dec-05 22:54 014 0 gusting 2 18.9
2019-Dec-05 22:49 037 0 gusting 2 18.9
2019-Dec-05 22:44 037 0 gusting 2 18.9
2019-Dec-05 22:39 040 0 gusting 2 18.9
2019-Dec-05 22:34 048 0 gusting 1 18.9
2019-Dec-05 22:29 036 19.4
2019-Dec-05 22:24 036 20.0
2019-Dec-05 22:19 036 20.0
2019-Dec-05 22:14 038 20.6
2019-Dec-05 22:09 039 0 gusting 2 20.6
2019-Dec-05 22:04 038 0 gusting 3 21.1
2019-Dec-05 21:59 360 1 gusting 3 21.7
2019-Dec-05 21:54 014 0 gusting 2 21.7
2019-Dec-05 21:49 360 21.7
2019-Dec-05 21:44 339 21.7
2019-Dec-05 21:39 333 1 gusting 4 21.7
2019-Dec-05 21:34 355 1 gusting 4 21.7
2019-Dec-05 21:29 346 1 gusting 4 22.2
2019-Dec-05 21:24 360 1 gusting 4 22.2
2019-Dec-05 21:19 340 0 gusting 4 22.8
2019-Dec-05 21:14 355 3 gusting 4 22.8
2019-Dec-05 21:09 338 1 gusting 4 22.8
2019-Dec-05 21:04 327 1 gusting 6 22.8
2019-Dec-05 20:59 334 2 gusting 6 22.2
2019-Dec-05 20:54 302 2 gusting 6 22.8
2019-Dec-05 20:49 334 22.8
2019-Dec-05 20:44 322 1 gusting 5 22.8
2019-Dec-05 20:39 342 1 gusting 5 22.8
2019-Dec-05 20:34 300 1 gusting 4 22.8
2019-Dec-05 20:29 336 1 gusting 4 23.3
2019-Dec-05 20:24 313 1 gusting 5 23.3
2019-Dec-05 20:19 331 1 gusting 6 23.3
2019-Dec-05 20:14 324 2 gusting 6 22.8
2019-Dec-05 20:09 325 1 gusting 3 22.8
2019-Dec-05 20:04 318 1 gusting 3 22.2
2019-Dec-05 19:59 348 0 gusting 3 22.2
2019-Dec-05 19:54 061 1 gusting 6 22.2
2019-Dec-05 19:49 019 1 gusting 6 22.2
2019-Dec-05 19:44 319 1 gusting 5 22.2
2019-Dec-05 19:39 019 1 gusting 5 21.7
2019-Dec-05 19:34 100 2 gusting 4 21.7
2019-Dec-05 19:29 005 1 gusting 3 21.7
2019-Dec-05 19:24 061 1 gusting 3 21.7
2019-Dec-05 19:19 068 1 gusting 4 21.7
2019-Dec-05 19:14 043 2 gusting 4 21.7
2019-Dec-05 19:09 033 1 gusting 3 21.1
2019-Dec-05 19:04 069 1 gusting 2 21.1
2019-Dec-05 18:59 079 0 gusting 4 21.1
2019-Dec-05 18:54 071 1 gusting 6 21.1
2019-Dec-05 18:49 049 3 gusting 6 21.1
2019-Dec-05 18:44 072 2 gusting 6 21.1
2019-Dec-05 18:39 078 1 gusting 6 21.1
2019-Dec-05 18:34 051 3 gusting 6 21.1
2019-Dec-05 18:29 026 1 gusting 4 21.1
2019-Dec-05 18:24 051 2 gusting 3 21.1
2019-Dec-05 18:19 057 0 gusting 3 20.6
2019-Dec-05 18:14 045 2 gusting 4 20.0
2019-Dec-05 18:09 074 1 gusting 4 20.0
2019-Dec-05 18:04 068 1 gusting 5 20.0
2019-Dec-05 17:59 077 2 gusting 6 20.0
2019-Dec-05 17:54 092 1 gusting 4 20.6
2019-Dec-05 17:49 015 0 gusting 6 20.0
2019-Dec-05 17:44 074 3 gusting 6 20.0
2019-Dec-05 17:39 055 2 gusting 5 20.0
2019-Dec-05 17:34 029 1 gusting 6 19.4
2019-Dec-05 17:29 080 3 gusting 6 19.4
2019-Dec-05 17:24 036 2 gusting 6 19.4
2019-Dec-05 17:19 091 3 gusting 6 20.0
2019-Dec-05 17:14 040 2 gusting 6 19.4
2019-Dec-05 17:09 029 2 gusting 6 19.4
2019-Dec-05 17:04 057 2 gusting 6 19.4
2019-Dec-05 16:59 079 1 gusting 6 19.4
2019-Dec-05 16:54 094 4 gusting 6 18.9
2019-Dec-05 16:49 042 1 gusting 4 18.9
2019-Dec-05 16:44 053 2 gusting 6 18.9
2019-Dec-05 16:39 032 2 gusting 6 19.4
2019-Dec-05 16:34 052 1 gusting 7 19.4
2019-Dec-05 16:29 068 1 gusting 5 19.4
2019-Dec-05 16:24 071 1 gusting 6 19.4
2019-Dec-05 16:19 024 3 gusting 6 18.9
2019-Dec-05 16:14 063 1 gusting 6 18.3
2019-Dec-05 16:09 036 4 gusting 6 18.3
2019-Dec-05 16:04 086 3 gusting 8 18.3
2019-Dec-05 15:59 058 4 gusting 8 18.3
2019-Dec-05 15:54 089 4 gusting 7 18.3
2019-Dec-05 15:49 039 1 gusting 6 19.4
2019-Dec-05 15:44 028 3 gusting 6 19.4
2019-Dec-05 15:39 031 2 gusting 6 19.4
2019-Dec-05 15:34 010 2 gusting 6 18.9
2019-Dec-05 15:29 065 3 gusting 9 18.9
2019-Dec-05 15:24 041 4 gusting 9 18.9
2019-Dec-05 15:19 059 4 gusting 6 18.9
2019-Dec-05 15:14 355 2 gusting 6 18.9
2019-Dec-05 15:09 050 1 gusting 7 18.3
2019-Dec-05 15:04 022 2 gusting 7 18.3
2019-Dec-05 14:59 026 4 gusting 6 18.3
2019-Dec-05 14:54 021 3 gusting 6 18.3
2019-Dec-05 14:49 044 0 gusting 5 17.8
2019-Dec-05 14:44 077 2 gusting 6 17.8
2019-Dec-05 14:39 017 2 gusting 6 17.8
2019-Dec-05 14:34 041 1 gusting 6 17.2
2019-Dec-05 14:29 059 2 gusting 6 17.2
2019-Dec-05 14:24 032 2 gusting 6 17.2
2019-Dec-05 14:19 032 1 gusting 4 16.7
2019-Dec-05 14:14 042 1 gusting 5 16.7
2019-Dec-05 14:09 067 1 gusting 3 16.7
2019-Dec-05 14:04 102 0 gusting 4 16.7
2019-Dec-05 13:59 080 1 gusting 4 16.1
2019-Dec-05 13:54 070 2 gusting 4 16.1
2019-Dec-05 13:49 078 1 gusting 4 16.1
2019-Dec-05 13:44 103 2 gusting 4 15.6
2019-Dec-05 13:39 091 0 gusting 5 15.6
2019-Dec-05 13:34 103 0 gusting 5 15.6
2019-Dec-05 13:29 087 1 gusting 2 15.0
2019-Dec-05 13:24 061 15.0
2019-Dec-05 13:19 052 0 gusting 2 15.0
2019-Dec-05 13:14 065 0 gusting 2 14.4
2019-Dec-05 13:09 069 13.9
2019-Dec-05 13:04 068 13.3
2019-Dec-05 12:59 069 12.2
2019-Dec-05 12:54 071 0 gusting 1 11.7
2019-Dec-05 12:49 067 11.7
2019-Dec-05 12:44 067 0 gusting 1 11.1
2019-Dec-05 12:39 048 0 gusting 1 11.1
2019-Dec-05 12:34 360 10.6
2019-Dec-05 12:29 360 10.6
2019-Dec-05 12:24 360 10.6
2019-Dec-05 12:19 360 10.6
2019-Dec-05 12:14 360 10.6
2019-Dec-05 12:09 360 10.6
2019-Dec-05 12:04 360 10.6
2019-Dec-05 11:59 360 10.6
2019-Dec-05 11:54 360 10.6
2019-Dec-05 11:49 360 10.6
2019-Dec-05 11:44 360 10.6
2019-Dec-05 11:39 360 10.6
2019-Dec-05 11:34 360 10.6
2019-Dec-05 11:29 360 10.6
2019-Dec-05 11:24 360 10.6
2019-Dec-05 11:19 360 10.6
2019-Dec-05 11:14 360 10.6
2019-Dec-05 11:09 360 10.6
2019-Dec-05 11:04 360 10.6
2019-Dec-05 10:59 360 10.6
2019-Dec-05 10:54 360 10.6
2019-Dec-05 10:49 360 10.6
2019-Dec-05 10:44 360 10.6
2019-Dec-05 10:39 360 11.1
2019-Dec-05 10:34 360 11.1
2019-Dec-05 10:29 360 10.6
2019-Dec-05 10:24 360 10.6
2019-Dec-05 10:19 360 10.6
2019-Dec-05 10:14 360 10.6
2019-Dec-05 10:09 360 10.6
2019-Dec-05 10:04 360 10.6
2019-Dec-05 09:59 360 10.6
2019-Dec-05 09:54 360 10.6
2019-Dec-05 09:49 360 11.1
2019-Dec-05 09:44 360 11.1
2019-Dec-05 09:39 360 11.1
2019-Dec-05 09:34 360 11.1
2019-Dec-05 09:29 360 11.1
2019-Dec-05 09:24 360 11.1
2019-Dec-05 09:19 360 11.1
2019-Dec-05 09:14 346 11.1
2019-Dec-05 09:09 346 11.1
2019-Dec-05 09:04 346 11.1
2019-Dec-05 08:59 346 11.1
2019-Dec-05 08:54 345 11.1
2019-Dec-05 08:49 346 11.1
2019-Dec-05 08:44 346 11.1
2019-Dec-05 08:39 345 11.1
2019-Dec-05 08:34 345 11.1
2019-Dec-05 08:29 345 11.1
2019-Dec-05 08:24 345 11.1
2019-Dec-05 08:19 346 11.1
2019-Dec-05 08:14 346 11.1
2019-Dec-05 08:09 345 11.1
2019-Dec-05 08:04 345 11.1
2019-Dec-05 07:59 346 11.1
2019-Dec-05 07:54 346 11.1
2019-Dec-05 07:49 346 11.1
2019-Dec-05 07:44 346 11.1
2019-Dec-05 07:39 346 11.1
2019-Dec-05 07:34 345 11.1
2019-Dec-05 07:29 346 11.7
2019-Dec-05 07:24 345 11.1
2019-Dec-05 07:19 345 11.1
2019-Dec-05 07:14 346 11.1
2019-Dec-05 07:09 346 11.1
2019-Dec-05 07:04 345 11.1
2019-Dec-05 06:59 346 11.1
2019-Dec-05 06:54 345 11.1
2019-Dec-05 06:49 345 11.7
2019-Dec-05 06:44 346 11.1
2019-Dec-05 06:39 345 11.1
2019-Dec-05 06:34 346 11.1
2019-Dec-05 06:29 346 11.1
2019-Dec-05 06:24 345 11.1
2019-Dec-05 06:19 346 11.1
2019-Dec-05 06:14 345 11.7
2019-Dec-05 06:09 346 11.7
2019-Dec-05 06:04 346 11.7
2019-Dec-05 05:59 346 11.7
2019-Dec-05 05:54 346 11.7
2019-Dec-05 05:49 345 11.7
2019-Dec-05 05:44 346 11.7
2019-Dec-05 05:39 346 11.7
2019-Dec-05 05:34 346 11.7
2019-Dec-05 05:29 345 11.7
2019-Dec-05 05:24 346 11.7
2019-Dec-05 05:19 345 12.2
2019-Dec-05 05:14 346 12.2
2019-Dec-05 05:09 346 12.2
2019-Dec-05 05:04 345 12.2
2019-Dec-05 04:59 346 12.2
2019-Dec-05 04:54 345 12.8
2019-Dec-05 04:49 345 12.8
2019-Dec-05 04:44 346 12.8
2019-Dec-05 04:39 345 12.8
2019-Dec-05 04:34 345 12.8
2019-Dec-05 04:29 346 13.3
2019-Dec-05 04:24 345 13.3
2019-Dec-05 04:19 346 13.3
2019-Dec-05 04:14 346 13.9
2019-Dec-05 04:09 345 13.9
2019-Dec-05 04:04 346 13.9
2019-Dec-05 03:59 345 13.9
2019-Dec-05 03:54 346 13.9
2019-Dec-05 03:49 346 14.4
2019-Dec-05 03:44 346 14.4
2019-Dec-05 03:39 345 15.0
2019-Dec-05 03:34 346 15.0
2019-Dec-05 03:29 345 15.0
2019-Dec-05 03:24 345 15.0
2019-Dec-05 03:19 346 15.0
2019-Dec-05 03:14 346 15.0
2019-Dec-05 03:09 346 15.6
2019-Dec-05 03:04 346 15.6
2019-Dec-05 02:59 345 15.6
2019-Dec-05 02:54 345 15.6
2019-Dec-05 02:49 329 15.6
2019-Dec-05 02:44 337 15.6
2019-Dec-05 02:39 337 16.1
2019-Dec-05 02:34 338 16.1
2019-Dec-05 02:29 338 16.1
2019-Dec-05 02:24 340 16.1
2019-Dec-05 02:19 340 16.7
2019-Dec-05 02:14 340 16.7
2019-Dec-05 02:09 338 16.7
2019-Dec-05 02:04 334 0 gusting 5 16.7
2019-Dec-05 01:59 312 1 gusting 4 16.7
2019-Dec-05 01:54 327 0 gusting 5 16.7
2019-Dec-05 01:49 333 1 gusting 4 16.7
2019-Dec-05 01:44 331 1 gusting 4 16.7
2019-Dec-05 01:39 327 1 gusting 3 16.7
2019-Dec-05 01:34 325 1 gusting 4 17.2
2019-Dec-05 01:29 315 1 gusting 4 17.2
2019-Dec-05 01:24 321 1 gusting 4 17.2
2019-Dec-05 01:19 009 1 gusting 3 17.2
2019-Dec-05 01:14 286 1 gusting 5 17.2
2019-Dec-05 01:09 299 1 gusting 5 17.2
2019-Dec-05 01:04 325 1 gusting 4 17.2
2019-Dec-05 00:59 279 1 gusting 4 17.2
2019-Dec-05 00:54 299 1 gusting 3 17.2
2019-Dec-05 00:49 287 0 gusting 3 17.8
2019-Dec-05 00:44 296 1 gusting 4 17.8
2019-Dec-05 00:39 275 1 gusting 4 17.8
2019-Dec-05 00:34 293 0 gusting 3 17.8
2019-Dec-05 00:29 307 0 gusting 3 17.8
2019-Dec-05 00:24 306 0 gusting 3 17.8
2019-Dec-05 00:19 308 17.2
2019-Dec-05 00:14 309 17.8
2019-Dec-05 00:09 310 17.2
2019-Dec-05 00:04 309 17.8
2019-Dec-04 23:59 310 17.8
2019-Dec-04 23:54 300 0 gusting 2 17.8
2019-Dec-04 23:49 304 17.8
2019-Dec-04 23:44 313 17.8
2019-Dec-04 23:39 287 17.8
2019-Dec-04 23:34 287 0 gusting 3 18.3
2019-Dec-04 23:29 286 1 gusting 4 18.3
2019-Dec-04 23:24 309 0 gusting 4 18.3
2019-Dec-04 23:19 304 18.3
2019-Dec-04 23:14 301 18.3
2019-Dec-04 23:09 296 18.3
2019-Dec-04 23:04 294 0 gusting 3 18.3
2019-Dec-04 22:59 272 0 gusting 3 18.9
2019-Dec-04 22:54 283 1 gusting 3 18.9
2019-Dec-04 22:49 300 1 gusting 3 18.9
2019-Dec-04 22:44 282 1 gusting 4 18.9
2019-Dec-04 22:39 294 2 gusting 5 19.4
2019-Dec-04 22:34 314 1 gusting 5 19.4
2019-Dec-04 22:29 287 2 gusting 5 19.4
2019-Dec-04 22:24 295 1 gusting 5 19.4
2019-Dec-04 22:19 291 2 gusting 6 20.0
2019-Dec-04 22:14 284 2 gusting 6 20.0
2019-Dec-04 22:09 304 2 gusting 6 20.6
2019-Dec-04 22:04 273 2 gusting 6 20.6
2019-Dec-04 21:59 333 2 gusting 6 21.1
2019-Dec-04 21:54 329 2 gusting 8 21.1
2019-Dec-04 21:49 269 1 gusting 6 21.1
2019-Dec-04 21:44 284 3 gusting 7 21.1
2019-Dec-04 21:39 293 3 gusting 7 21.1
2019-Dec-04 21:34 301 4 gusting 7 21.7
2019-Dec-04 21:29 297 2 gusting 6 21.7
2019-Dec-04 21:24 317 3 gusting 6 22.2
2019-Dec-04 21:19 318 3 gusting 6 22.2
2019-Dec-04 21:14 306 3 gusting 6 22.2
2019-Dec-04 21:09 300 2 gusting 6 22.2
2019-Dec-04 21:04 321 4 gusting 6 22.2
2019-Dec-04 20:59 327 3 gusting 7 22.2
2019-Dec-04 20:54 293 2 gusting 6 22.2
2019-Dec-04 20:49 314 0 gusting 6 22.8
2019-Dec-04 20:44 310 2 gusting 6 22.2
2019-Dec-04 20:39 335 3 gusting 6 22.8
2019-Dec-04 20:34 300 4 gusting 6 22.8
2019-Dec-04 20:29 318 3 gusting 6 22.8
2019-Dec-04 20:24 335 3 gusting 6 22.2
2019-Dec-04 20:19 307 4 gusting 7 22.2
2019-Dec-04 20:14 270 4 gusting 7 22.2
2019-Dec-04 20:09 275 3 gusting 7 22.8
2019-Dec-04 20:04 315 3 gusting 7 22.8
2019-Dec-04 19:59 304 4 gusting 8 22.8
2019-Dec-04 19:54 331 3 gusting 8 22.8
2019-Dec-04 19:49 342 4 gusting 8 22.8
2019-Dec-04 19:44 296 3 gusting 8 22.8
2019-Dec-04 19:39 333 4 gusting 7 22.8
2019-Dec-04 19:34 301 5 gusting 11 22.8
2019-Dec-04 19:29 334 5 gusting 11 22.2
2019-Dec-04 19:24 277 5 gusting 11 22.2
2019-Dec-04 19:19 281 6 gusting 9 22.2
2019-Dec-04 19:14 286 5 gusting 10 22.2
2019-Dec-04 19:09 274 5 gusting 9 22.8
2019-Dec-04 19:04 325 4 gusting 11 22.8
2019-Dec-04 18:59 005 4 gusting 11 22.8
2019-Dec-04 18:54 292 4 gusting 10 22.8
2019-Dec-04 18:49 326 6 gusting 12 22.2
2019-Dec-04 18:44 277 6 gusting 12 22.8
2019-Dec-04 18:39 295 4 gusting 11 23.3
2019-Dec-04 18:34 306 6 gusting 11 22.8
2019-Dec-04 18:29 292 4 gusting 11 23.3
2019-Dec-04 18:24 350 4 gusting 8 23.3
2019-Dec-04 18:19 336 3 gusting 8 23.3
2019-Dec-04 18:14 306 4 gusting 9 23.3
2019-Dec-04 18:09 321 5 gusting 10 22.8
2019-Dec-04 18:04 304 6 gusting 10 23.3
2019-Dec-04 17:59 313 3 gusting 9 23.3
2019-Dec-04 17:54 315 6 gusting 10 23.3
2019-Dec-04 17:49 329 4 gusting 10 23.3
2019-Dec-04 17:44 286 6 gusting 10 23.3
2019-Dec-04 17:39 294 3 gusting 8 22.8
2019-Dec-04 17:34 293 4 gusting 8 23.3
2019-Dec-04 17:29 325 3 gusting 7 23.3
2019-Dec-04 17:24 331 3 gusting 6 23.9
2019-Dec-04 17:19 334 3 gusting 6 23.3
2019-Dec-04 17:14 283 2 gusting 8 22.8
2019-Dec-04 17:09 286 5 gusting 8 23.3
2019-Dec-04 17:04 355 3 gusting 5 23.3
2019-Dec-04 16:59 360 2 gusting 6 23.3
2019-Dec-04 16:54 011 2 gusting 7 23.3
2019-Dec-04 16:49 340 4 gusting 7 23.3
2019-Dec-04 16:44 347 2 gusting 4 23.3
2019-Dec-04 16:39 344 1 gusting 8 23.3
2019-Dec-04 16:34 341 3 gusting 7 22.8
2019-Dec-04 16:29 279 4 gusting 6 22.8
2019-Dec-04 16:24 348 2 gusting 8 22.8
2019-Dec-04 16:19 355 4 gusting 8 22.8
2019-Dec-04 16:14 313 3 gusting 10 22.8
2019-Dec-04 16:09 334 3 gusting 10 22.8
2019-Dec-04 16:04 323 2 gusting 5 23.9
2019-Dec-04 15:59 346 2 gusting 6 23.3
2019-Dec-04 15:54 334 2 gusting 6 23.3
2019-Dec-04 15:49 355 1 gusting 8 23.3
2019-Dec-04 15:44 345 4 gusting 6 22.8
2019-Dec-04 15:39 326 2 gusting 6 22.2
2019-Dec-04 15:34 019 2 gusting 6 22.2
2019-Dec-04 15:29 360 4 gusting 7 22.2
2019-Dec-04 15:24 339 2 gusting 6 22.2
2019-Dec-04 15:19 029 2 gusting 7 22.2
2019-Dec-04 15:14 340 3 gusting 8 21.7
2019-Dec-04 15:09 355 4 gusting 8 21.7
2019-Dec-04 15:04 333 4 gusting 8 21.7
2019-Dec-04 14:59 311 2 gusting 8 21.7
2019-Dec-04 14:54 302 5 gusting 8 21.7
2019-Dec-04 14:49 323 2 gusting 8 21.1
2019-Dec-04 14:44 313 1 gusting 5 21.7
2019-Dec-04 14:39 336 0 gusting 6 21.1
2019-Dec-04 14:34 017 1 gusting 6 21.1
2019-Dec-04 14:29 331 1 gusting 6 21.1
2019-Dec-04 14:24 355 3 gusting 6 20.6
2019-Dec-04 14:19 011 1 gusting 3 20.6
2019-Dec-04 14:14 024 0 gusting 3 20.6
2019-Dec-04 14:09 345 0 gusting 2 20.0
2019-Dec-04 14:04 125 19.4
2019-Dec-04 13:59 128 0 gusting 2 19.4
2019-Dec-04 13:54 132 0 gusting 1 18.9
2019-Dec-04 13:49 132 18.3
2019-Dec-04 13:44 132 18.3
2019-Dec-04 13:39 132 0 gusting 2 17.8
2019-Dec-04 13:34 132 17.8
2019-Dec-04 13:29 220 0 gusting 2 17.2
2019-Dec-04 13:24 221 16.7
2019-Dec-04 13:19 221 15.6
2019-Dec-04 13:14 222 14.4
2019-Dec-04 13:09 222 13.9
2019-Dec-04 13:04 222 13.3
2019-Dec-04 12:59 222 12.8
2019-Dec-04 12:54 222 12.2
2019-Dec-04 12:49 222 12.2
2019-Dec-04 12:44 222 12.2
2019-Dec-04 12:39 222 12.2
2019-Dec-04 12:34 222 12.2
2019-Dec-04 12:29 222 11.7
2019-Dec-04 12:24 222 11.7
2019-Dec-04 12:19 222 11.7
2019-Dec-04 12:14 222 11.7
2019-Dec-04 12:09 222 11.7
2019-Dec-04 12:04 222 11.7
2019-Dec-04 11:59 222 11.7
2019-Dec-04 11:54 222 11.7
2019-Dec-04 11:49 222 11.7
2019-Dec-04 11:44 222 11.7
2019-Dec-04 11:39 222 11.7
2019-Dec-04 11:34 222 11.7
2019-Dec-04 11:29 222 11.7
2019-Dec-04 11:24 222 11.7
2019-Dec-04 11:19 222 11.7
2019-Dec-04 11:14 222 12.2
2019-Dec-04 11:09 222 12.2
2019-Dec-04 11:04 222 12.2
2019-Dec-04 10:59 222 12.2
2019-Dec-04 10:54 222 12.2
2019-Dec-04 10:49 222 12.2
2019-Dec-04 10:44 222 12.2
2019-Dec-04 10:39 222 12.2
2019-Dec-04 10:34 222 12.2
2019-Dec-04 10:29 222 12.2
2019-Dec-04 10:24 222 12.2
2019-Dec-04 10:19 222 12.2
2019-Dec-04 10:14 222 12.8
2019-Dec-04 10:09 222 12.8
2019-Dec-04 10:04 222 12.8
2019-Dec-04 09:59 222 12.8
2019-Dec-04 09:54 222 12.8
2019-Dec-04 09:49 222 12.8
2019-Dec-04 09:44 222 12.8
2019-Dec-04 09:39 222 12.8
2019-Dec-04 09:34 222 12.8
2019-Dec-04 09:29 222 12.8
2019-Dec-04 09:24 222 12.8
2019-Dec-04 09:19 222 12.8
2019-Dec-04 09:14 222 12.8
2019-Dec-04 09:09 222 12.8
2019-Dec-04 09:04 222 12.8
2019-Dec-04 08:59 222 13.3
2019-Dec-04 08:54 222 12.8
2019-Dec-04 08:49 222 12.8
2019-Dec-04 08:44 222 12.8
2019-Dec-04 08:39 222 12.8
2019-Dec-04 08:34 222 12.8
2019-Dec-04 08:29 222 13.3
2019-Dec-04 08:24 222 13.3
2019-Dec-04 08:19 222 13.3
2019-Dec-04 08:14 222 13.3
2019-Dec-04 08:09 222 13.3
2019-Dec-04 08:04 233 13.3
2019-Dec-04 07:59 272 13.9
2019-Dec-04 07:54 273 13.9
2019-Dec-04 07:49 307 13.9
2019-Dec-04 07:44 326 0 gusting 1 13.9
2019-Dec-04 07:39 326 13.9
2019-Dec-04 07:34 326 13.9
2019-Dec-04 07:29 326 13.9
2019-Dec-04 07:24 326 13.9
2019-Dec-04 07:19 326 13.9
2019-Dec-04 07:14 326 13.9
2019-Dec-04 07:09 326 14.4
2019-Dec-04 07:04 326 14.4